AirNav  
 
 1836 users online  

I23 Fayette County Airport
Washington Court House, Ohio, USA

GOING TO WASHINGTON COURT HOUSE?


FAA INFORMATION EFFECTIVE 01 FEBRUARY 2018

Location

FAA Identifier: I23
Lat/Long: 39-34-13.4545N / 083-25-13.8582W
39-34.224242N / 083-25.230970W
39.5704040 / -83.4205162
(estimated)
Elevation: 979.6 ft. / 298.6 m (surveyed)
Variation: 06W (2000)
From city: 2 miles NE of WASHINGTON COURT HOUSE, OH
Time zone: UTC -5 (UTC -4 during Daylight Saving Time)
Zip code: 43160

Airport Operations

Airport use: Open to the public
Activation date: 03/1967
Control tower: no
ARTCC: INDIANAPOLIS CENTER
FSS: DAYTON FLIGHT SERVICE STATION
NOTAMs facility: DAY (NOTAM-D service available)
Attendance: MON-SAT 0800-1800
Pattern altitude: 1779.6 ft. MSL
Wind indicator: lighted
Segmented circle: no
Lights: ACTVT MIRL RY 05/23 MIRL CTAF 122.8.
Beacon: white-green (lighted land airport)
Operates sunset to sunrise.

Airport Communications

CTAF/UNICOM: 122.8
WX AWOS-3PT: 118.775
COLUMBUS APPROACH: 134.0
COLUMBUS DEPARTURE: 134.0
IC: 134.0
WX ASOS at ILN (19 nm SW): PHONE 937-383-7334
WX AWOS-3 at RZT (20 nm SE): 119.225 (740-779-1364)

Nearby radio navigation aids

VOR radial/distance  VOR name  Freq  Var
MXQr068/19.5MIDWEST VOR/DME112.9004W
XUBr282/(20.6)YELLOW BUD VOR112.5005W
SGHr133/25.3SPRINGFIELD VOR/DME113.2004W

 
NDB name  Hdg/Dist  Freq  Var  ID
COURT HOUSE222/2.341406WCSS -.-. ... ...
HILLSBORO019/23.827805WHOC .... --- -.-.
CLARK COUNTY142/24.634104WCCJ -.-. -.-. .---
WAVERLY323/33.238506WEOP . --- .--.

Airport Services

Fuel available: 100LL JET-A
Parking: tiedowns
Bottled oxygen: NONE
Bulk oxygen: NONE

Runway Information

Runway 5/23

Dimensions: 5097 x 75 ft. / 1554 x 23 m
Surface: asphalt, in good condition
Weight bearing capacity: 
Single wheel: 30.0
Double wheel: 40.0
Runway edge lights: medium intensity
RUNWAY 5  RUNWAY 23
Latitude: 39-33.876502N39-34.571967N
Longitude: 083-25.534697W083-24.927193W
Elevation: 978.4 ft.975.6 ft.
Gradient: 0.1%0.1%
Traffic pattern: leftleft
Runway heading: 040 magnetic, 034 true220 magnetic, 214 true
Markings: nonprecision, in good conditionnonprecision, in good condition
Visual slope indicator: 4-light PAPI on left (3.00 degrees glide path)
Runway end identifier lights: noyes
Touchdown point: yes, no lightsyes, no lights
Obstructions: 28 ft. rr, 201 ft. from runway, 245 ft. right of centerline
+28 FT RR 0 FT FM END 240 FT R.
28 ft. rr, 201 ft. from runway, 240 ft. left of centerline
+28 RR 0' FM RY END 220 FT L; +20-28 FT BRUSH/TREES 0-200 FT FM 220 L.

Airport Ownership and Management from official FAA records

Ownership: Publicly-owned
Owner: FAYETTE COUNTY COMMISSIONERS
2770 STATE ROUTE 38
WASH. COURTHOUSE, OH 43160
Phone 740-335-2430
Manager: JERRY VANDYKE
2770 ST RT 38 NE
WASH. COURTHOUSE, OH 43160
Phone 740-335-2430
CELL PHONE 740-937-7170

Airport Operational Statistics

Aircraft based on the field: 25
Single engine airplanes: 24
Multi engine airplanes: 1
    
Aircraft operations: avg 81/day *
53% transient general aviation
44% local general aviation
2% air taxi
1% military
* for 12-month period ending 29 September 2015

Additional Remarks

CLNC DEL (614) 338-8537.

Instrument Procedures

NOTE: All procedures below are presented as PDF files. If you need a reader for these files, you should download the free Adobe Reader.

NOT FOR NAVIGATION. Please procure official charts for flight.
FAA instrument procedures published for use between 1 February 2018 at 0901Z and 1 March 2018 at 0900Z.

 
IAPs - Instrument Approach Procedures
RNAV (GPS) RWY 23   download (186KB)
NDB RWY 23   download (187KB)
NOTE: Special Take-Off Minimums/Departure Procedures apply   download (164KB)

Other nearby airports with instrument procedures:

KILN - Wilmington Air Park (19 nm SW)
KRZT - Ross County Airport (20 nm SE)
KCYO - Pickaway County Memorial Airport (21 nm E)
I66 - Clinton Field Airport (21 nm W)
KUYF - Madison County Airport (22 nm N)
 
Loc | Ops | Rwys | IFR | FBO | Links
Com | Nav | Svcs | Stats | Notes

AirNav Hotels Sweepstakes
 
Area around I23 (Fayette County Airport)
 
Road maps at: MapQuest Bing Google
 
Aerial photo
WARNING: Photo may not be current or correct
Aerial photo of I23 (Fayette County Airport)
Photo taken 11-Mar-2007

Do you have a better or more recent aerial photo of Fayette County Airport that you would like to share? If so, please send us your photo.

 
Sectional chart

 
Airport distance calculator
Flying to Fayette County Airport? Find the distance to fly.

From to I23

Sunrise and sunset
Times for 20-Feb-2018
 Local
(UTC-5)
 Zulu
(UTC)
Morning civil twilight06:5311:53
Sunrise07:2012:20
Sunset18:1523:15
Evening civil twilight18:4223:42

Current date and time
Zulu (UTC)  20-Feb-2018 16:17:52
Local (UTC-5)  20-Feb-2018 11:17:52
 
METAR
KILN 
19nm SW 
201554Z AUTO 20023G32KT 10SM CLR 19/15 A3015 RMK AO2 PK WND 20032/1548 SLP209 T01940150
KRZT 
20nm SE 
201555Z AUTO 21017G30KT 10SM CLR 21/13 A3017 RMK AO2
KUYF 
22nm N 
201555Z AUTO 21014G23KT 10SM SCT100 19/16 A3014 RMK AO2
KTZR 
23nm NE 
201547Z 21017G29KT 10SM SCT100 20/15 A3016
KSGH 
24nm NW 
201556Z AUTO 21015G21KT 10SM CLR 19/14 A3013 RMK AO2 PK WND 21026/1512 SLP200 T01940144
KLCK 
28nm NE 
201555Z AUTO 22018G31KT 10SM CLR 21/15 A3015 RMK AO2 T02050150
KFFO 
32nm NW 
201556Z 21026G32KT 10SM FEW050 FEW120 22/13 A3013 RMK AO2A PK WND 21032/01 SLP163 $
KOSU 
34nm NE 
201553Z 21021G26KT 10SM BKN100 20/15 A3013 RMK AO2 PK WND 20032/1511 RAB13E18B47E50 SLP200 P0000 T02000150
KCMH 
36nm NE 
201551Z 20017G28KT 10SM SCT023 BKN110 OVC250 21/15 A3015 RMK AO2 PK WND 19028/1543 SLP208 T02060150
KLHQ 
36nm E 
201553Z AUTO 21014G23KT 10SM CLR 21/14 A3017 RMK AO2 SLP213 T02110139
TAF
KILN 
19nm SW 
201139Z 2012/2112 19011KT P6SM SCT250 WS020/22050KT FM201400 20018G28KT P6SM FEW050 FM202300 20012G20KT P6SM BKN040 FM210900 21015G22KT P6SM VCSH BKN022 OVC040
NOTAMs
Click for the latest NOTAMs
NOTAMs are issued by the DoD/FAA and will open in a separate window not controlled by AirNav.

 

 
 

FBO, Fuel Providers, and Aircraft Ground Support

  
 Business Name 
 
 Contact 
 
 Services / Description 
 
Fuel Prices
 
Comments
  
Fayette County (FBO) 740-335-2430
no information available

If you are affiliated with Fayette County (FBO) and would like to show here your services, contact info, web link, logo, and more, click here
100LL Jet A
FS $4.55 $3.00 
SS $4.40 $2.91 
 Updated 19-Feb-2018
 
   3 read write
FS=Full service
SS=Self service
Update Fuel Prices
 

Would you like to see your business listed on this page?

 If your business provides an interesting product or service to pilots, flight crews, aircraft, or users of the Fayette County Airport, you should consider listing it here.  To start the listing process, click on the button below
 
Add a business
 

Other Pages about Fayette County Airport

Update a link
 
Copyright © AirNav, LLC. All rights reserved. Privacy Policy  Contact